| time (UTC) | temp C | wind direction | speed KPH | gust KPH | rain 1hr cm | rain 24hr cm | rain mn cm | humidity % | barometer mb |
| 20260510145045 | 29 | 65 | 1.6 | 4.8 | 0.00 | 0.00 | 0.00 | 14 | 1008.0 |
| 20260510144544 | 28 | 46 | 0.0 | 3.2 | 0.00 | 0.00 | 0.00 | 14 | 1007.9 |
| 20260510144042 | 28 | 311 | 0.0 | 0.0 | 0.00 | 0.00 | 0.00 | 16 | 1007.9 |
| 20260510143540 | 27 | 311 | 0.0 | 0.0 | 0.00 | 0.00 | 0.00 | 16 | 1007.9 |
| 20260510143039 | 27 | 336 | 0.0 | 0.0 | 0.00 | 0.00 | 0.00 | 20 | 1007.9 |
| 20260510142543 | 27 | 78 | 0.0 | 0.0 | 0.00 | 0.00 | 0.00 | 20 | 1007.8 |
| 20260510142037 | 26 | 78 | 0.0 | 0.0 | 0.00 | 0.00 | 0.00 | 31 | 1007.8 |
| 20260510141538 | 26 | 78 | 0.0 | 0.0 | 0.00 | 0.00 | 0.00 | 28 | 1007.7 |
| 20260510141035 | 25 | 78 | 0.0 | 0.0 | 0.00 | 0.00 | 0.00 | 29 | 1007.7 |
| 20260510140533 | 25 | 78 | 0.0 | 0.0 | 0.00 | 0.00 | 0.00 | 24 | 1007.6 |
| 20260510140031 | 25 | 78 | 0.0 | 0.0 | 0.00 | 0.00 | 0.00 | 17 | 1007.5 |
| 20260510135530 | 24 | 78 | 0.0 | 0.0 | 0.00 | 0.00 | 0.00 | 22 | 1007.4 |
| 20260510135028 | 23 | 78 | 0.0 | 0.0 | 0.00 | 0.00 | 0.00 | 24 | 1007.3 |
| 20260510134526 | 23 | 78 | 0.0 | 0.0 | 0.00 | 0.00 | 0.00 | 22 | 1007.2 |
| 20260510134026 | 23 | 355 | 0.0 | 0.0 | 0.00 | 0.00 | 0.00 | 24 | 1007.1 |
| 20260510133524 | 23 | 355 | 0.0 | 0.0 | 0.00 | 0.00 | 0.00 | 22 | 1007.0 |
| 20260510133023 | 23 | 355 | 0.0 | 0.0 | 0.00 | 0.00 | 0.00 | 25 | 1007.0 |
| 20260510132522 | 23 | 355 | 0.0 | 0.0 | 0.00 | 0.00 | 0.00 | 23 | 1006.9 |
| 20260510132021 | 23 | 355 | 0.0 | 0.0 | 0.00 | 0.00 | 0.00 | 23 | 1006.8 |
| 20260510131519 | 23 | 355 | 0.0 | 0.0 | 0.00 | 0.00 | 0.00 | 20 | 1006.8 |
| 20260510131022 | 23 | 355 | 0.0 | 0.0 | 0.00 | 0.00 | 0.00 | 20 | 1006.7 |
| 20260510130516 | 23 | 355 | 0.0 | 0.0 | 0.00 | 0.00 | 0.00 | 21 | 1006.6 |
| 20260510130016 | 23 | 355 | 0.0 | 0.0 | 0.00 | 0.00 | 0.00 | 20 | 1006.6 |
| 20260510125515 | 23 | 355 | 0.0 | 0.0 | 0.00 | 0.00 | 0.00 | 18 | 1006.6 |
| 20260510125013 | 23 | 355 | 0.0 | 0.0 | 0.00 | 0.00 | 0.00 | 18 | 1006.5 |
| 20260510124514 | 23 | 42 | 0.0 | 1.6 | 0.00 | 0.00 | 0.00 | 21 | 1006.5 |
| 20260510124011 | 23 | 42 | 0.0 | 1.6 | 0.00 | 0.00 | 0.00 | 18 | 1006.5 |
| 20260510123510 | 23 | 42 | 0.0 | 4.8 | 0.00 | 0.00 | 0.00 | 20 | 1006.4 |
| 20260510123010 | 23 | 42 | 0.0 | 4.8 | 0.00 | 0.00 | 0.00 | 18 | 1006.5 |
| 20260510122510 | 23 | 61 | 3.2 | 4.8 | 0.00 | 0.00 | 0.00 | 17 | 1006.5 |
| 20260510122010 | 23 | 92 | 0.0 | 3.2 | 0.00 | 0.00 | 0.00 | 18 | 1006.3 |
| 20260510121509 | 24 | 104 | 0.0 | 3.2 | 0.00 | 0.00 | 0.00 | 17 | 1006.2 |
| 20260510121010 | 24 | 50 | 0.0 | 3.2 | 0.00 | 0.00 | 0.00 | 17 | 1006.2 |
| 20260510120509 | 24 | 21 | 0.0 | 3.2 | 0.00 | 0.00 | 0.00 | 17 | 1006.2 |
| 20260510120008 | 25 | 45 | 1.6 | 3.2 | 0.00 | 0.00 | 0.00 | 16 | 1006.2 |
| 20260510115508 | 25 | 53 | 0.0 | 3.2 | 0.00 | 0.00 | 0.00 | 15 | 1006.2 |
| 20260510115007 | 25 | 36 | 0.0 | 3.2 | 0.00 | 0.00 | 0.00 | 18 | 1006.1 |
| 20260510114509 | 25 | 41 | 0.0 | 3.2 | 0.00 | 0.00 | 0.00 | 19 | 1006.1 |
| 20260510114006 | 25 | 302 | 0.0 | 3.2 | 0.00 | 0.00 | 0.00 | 18 | 1006.0 |
| 20260510113507 | 25 | 67 | 1.6 | 4.8 | 0.00 | 0.00 | 0.00 | 15 | 1006.1 |
| 20260510113006 | 24 | 56 | 1.6 | 4.8 | 0.00 | 0.00 | 0.00 | 16 | 1006.1 |
| 20260510112508 | 24 | 46 | 1.6 | 3.2 | 0.00 | 0.00 | 0.00 | 17 | 1006.1 |
| 20260510112006 | 23 | 323 | 0.0 | 3.2 | 0.00 | 0.00 | 0.00 | 18 | 1006.1 |
| 20260510111508 | 23 | 317 | 0.0 | 4.8 | 0.00 | 0.00 | 0.00 | 17 | 1006.0 |
| 20260510111004 | 24 | 316 | 1.6 | 4.8 | 0.00 | 0.00 | 0.00 | 21 | 1006.0 |
| 20260510110502 | 24 | 52 | 0.0 | 3.2 | 0.00 | 0.00 | 0.00 | 21 | 1005.9 |
| 20260510110006 | 24 | 38 | 0.0 | 3.2 | 0.00 | 0.00 | 0.00 | 18 | 1005.9 |
| 20260510105601 | 25 | 32 | 0.0 | 1.6 | 0.00 | 0.00 | 0.00 | 18 | 1005.8 |
| 20260510105059 | 25 | 312 | 0.0 | 3.2 | 0.00 | 0.00 | 0.00 | 21 | 1005.8 |
| 20260510104559 | 25 | 312 | 0.0 | 3.2 | 0.00 | 0.00 | 0.00 | 18 | 1005.6 |
| 20260510104100 | 25 | 32 | 0.0 | 3.2 | 0.00 | 0.00 | 0.00 | 16 | 1005.7 |
| 20260510103556 | 25 | 20 | 0.0 | 3.2 | 0.00 | 0.00 | 0.00 | 21 | 1005.7 |
| 20260510103056 | 25 | 237 | 0.0 | 3.2 | 0.00 | 0.00 | 0.00 | 15 | 1005.6 |
| 20260510102556 | 25 | 252 | 0.0 | 0.0 | 0.00 | 0.00 | 0.00 | 16 | 1005.7 |
| 20260510102054 | 26 | 225 | 0.0 | 1.6 | 0.00 | 0.00 | 0.00 | 19 | 1005.7 |
| 20260510101559 | 26 | 225 | 0.0 | 1.6 | 0.00 | 0.00 | 0.00 | 18 | 1005.7 |
| 20260510101051 | 26 | 293 | 0.0 | 1.6 | 0.00 | 0.00 | 0.00 | 17 | 1005.7 |
| 20260510100554 | 26 | 293 | 0.0 | 3.2 | 0.00 | 0.00 | 0.00 | 19 | 1005.7 |
| 20260510100112 | 27 | 293 | 1.6 | 3.2 | 0.00 | 0.00 | 0.00 | 17 | 1005.7 |
| 20260510095551 | 27 | 244 | 0.0 | 4.8 | 0.00 | 0.00 | 0.00 | 15 | 1005.7 |
| 20260510095046 | 27 | 116 | 0.0 | 4.8 | 0.00 | 0.00 | 0.00 | 14 | 1005.7 |
| 20260510094545 | 27 | 163 | 0.0 | 4.8 | 0.00 | 0.00 | 0.00 | 15 | 1005.7 |
| 20260510094044 | 27 | 196 | 0.0 | 12.9 | 0.00 | 0.00 | 0.00 | 16 | 1005.5 |
| 20260510093543 | 27 | 84 | 6.4 | 16.1 | 0.00 | 0.00 | 0.00 | 14 | 1005.3 |
| 20260510093048 | 28 | 67 | 11.3 | 16.1 | 0.00 | 0.00 | 0.00 | 14 | 1005.3 |
| 20260510092540 | 30 | 63 | 6.4 | 12.9 | 0.00 | 0.00 | 0.00 | 14 | 1005.2 |
| 20260510092038 | 31 | 61 | 8.0 | 16.1 | 0.00 | 0.00 | 0.00 | 12 | 1005.1 |
| 20260510091539 | 31 | 312 | 6.4 | 16.1 | 0.00 | 0.00 | 0.00 | 11 | 1005.0 |
| 20260510091037 | 32 | 283 | 6.4 | 12.9 | 0.00 | 0.00 | 0.00 | 11 | 1005.0 |
| 20260510090537 | 31 | 319 | 6.4 | 14.5 | 0.00 | 0.00 | 0.00 | 11 | 1004.8 |
| 20260510090038 | 32 | 261 | 8.0 | 14.5 | 0.00 | 0.00 | 0.00 | 11 | 1004.8 |
| 20260510085537 | 32 | 281 | 6.4 | 19.3 | 0.00 | 0.00 | 0.00 | 11 | 1004.8 |
| 20260510085036 | 32 | 254 | 9.7 | 19.3 | 0.00 | 0.00 | 0.00 | 11 | 1004.8 |
| 20260510084537 | 32 | 289 | 11.3 | 19.3 | 0.00 | 0.00 | 0.00 | 11 | 1004.7 |
| 20260510084036 | 32 | 275 | 8.0 | 24.1 | 0.00 | 0.00 | 0.00 | 10 | 1004.8 |
| 20260510083536 | 32 | 294 | 11.3 | 24.1 | 0.00 | 0.00 | 0.00 | 11 | 1004.8 |
| 20260510083044 | 32 | 293 | 11.3 | 20.9 | 0.00 | 0.00 | 0.00 | 11 | 1004.7 |
| 20260510082535 | 32 | 333 | 11.3 | 22.5 | 0.00 | 0.00 | 0.00 | 11 | 1004.7 |
| 20260510082035 | 32 | 274 | 6.4 | 20.9 | 0.00 | 0.00 | 0.00 | 12 | 1004.8 |
| 20260510081539 | 32 | 292 | 11.3 | 19.3 | 0.00 | 0.00 | 0.00 | 11 | 1004.8 |
| 20260510081036 | 32 | 317 | 12.9 | 19.3 | 0.00 | 0.00 | 0.00 | 12 | 1004.7 |
| 20260510080536 | 32 | 308 | 12.9 | 25.7 | 0.00 | 0.00 | 0.00 | 11 | 1004.7 |
| 20260510080036 | 32 | 295 | 12.9 | 25.7 | 0.00 | 0.00 | 0.00 | 11 | 1004.7 |
| 20260510075536 | 32 | 304 | 9.7 | 22.5 | 0.00 | 0.00 | 0.00 | 12 | 1004.8 |
| 20260510075033 | 31 | 302 | 11.3 | 20.9 | 0.00 | 0.00 | 0.00 | 12 | 1004.8 |
| 20260510074534 | 32 | 297 | 11.3 | 20.9 | 0.00 | 0.00 | 0.00 | 11 | 1004.9 |
| 20260510074032 | 32 | 277 | 12.9 | 20.9 | 0.00 | 0.00 | 0.00 | 11 | 1004.9 |
| 20260510073532 | 32 | 292 | 11.3 | 24.1 | 0.00 | 0.00 | 0.00 | 11 | 1004.9 |
| 20260510073031 | 32 | 285 | 8.0 | 24.1 | 0.00 | 0.00 | 0.00 | 12 | 1004.9 |
| 20260510072531 | 32 | 319 | 14.5 | 24.1 | 0.00 | 0.00 | 0.00 | 11 | 1005.0 |
| 20260510072032 | 32 | 305 | 11.3 | 22.5 | 0.00 | 0.00 | 0.00 | 11 | 1004.9 |
| 20260510071537 | 32 | 248 | 11.3 | 20.9 | 0.00 | 0.00 | 0.00 | 12 | 1004.8 |
| 20260510071028 | 32 | 307 | 11.3 | 22.5 | 0.00 | 0.00 | 0.00 | 11 | 1004.9 |
| 20260510070528 | 32 | 272 | 11.3 | 22.5 | 0.00 | 0.00 | 0.00 | 11 | 1004.9 |
| 20260510070027 | 32 | 287 | 11.3 | 20.9 | 0.00 | 0.00 | 0.00 | 11 | 1004.8 |
| 20260510065527 | 32 | 292 | 11.3 | 27.4 | 0.00 | 0.00 | 0.00 | 10 | 1004.8 |
| 20260510065026 | 33 | 346 | 16.1 | 30.6 | 0.00 | 0.00 | 0.00 | 10 | 1004.8 |
| 20260510064526 | 32 | 310 | 16.1 | 24.1 | 0.00 | 0.00 | 0.00 | 10 | 1004.7 |
| 20260510064026 | 32 | 275 | 14.5 | 24.1 | 0.00 | 0.00 | 0.00 | 11 | 1004.8 |
| 20260510063530 | 32 | 280 | 11.3 | 27.4 | 0.00 | 0.00 | 0.00 | 9 | 1004.8 |
| 20260510063027 | 32 | 322 | 9.7 | 27.4 | 0.00 | 0.00 | 0.00 | 10 | 1004.7 |
| 20260510062526 | 32 | 290 | 14.5 | 22.5 | 0.00 | 0.00 | 0.00 | 9 | 1004.7 |
| 20260510062025 | 32 | 259 | 11.3 | 24.1 | 0.00 | 0.00 | 0.00 | 9 | 1004.7 |
| 20260510061538 | 33 | 318 | 14.5 | 25.7 | 0.00 | 0.00 | 0.00 | 9 | 1004.7 |
| 20260510061027 | 33 | 284 | 14.5 | 25.7 | 0.00 | 0.00 | 0.00 | 8 | 1004.7 |
| 20260510060524 | 32 | 266 | 14.5 | 25.7 | 0.00 | 0.00 | 0.00 | 8 | 1004.5 |
| 20260510060025 | 32 | 288 | 12.9 | 24.1 | 0.00 | 0.00 | 0.00 | 9 | 1004.6 |
| 20260510055524 | 32 | 280 | 12.9 | 22.5 | 0.00 | 0.00 | 0.00 | 10 | 1004.6 |
| 20260510055024 | 32 | 296 | 11.3 | 22.5 | 0.00 | 0.00 | 0.00 | 9 | 1004.6 |
| 20260510054524 | 33 | 289 | 9.7 | 22.5 | 0.00 | 0.00 | 0.00 | 10 | 1004.6 |
| 20260510054024 | 32 | 309 | 12.9 | 24.1 | 0.00 | 0.00 | 0.00 | 9 | 1004.6 |
| 20260510053524 | 32 | 331 | 12.9 | 24.1 | 0.00 | 0.00 | 0.00 | 10 | 1004.6 |
| 20260510053024 | 32 | 285 | 11.3 | 24.1 | 0.00 | 0.00 | 0.00 | 11 | 1004.5 |
| 20260510052528 | 33 | 273 | 11.3 | 22.5 | 0.00 | 0.00 | 0.00 | 10 | 1004.5 |
| 20260510052023 | 33 | 310 | 9.7 | 17.7 | 0.00 | 0.00 | 0.00 | 10 | 1004.6 |
| 20260510051523 | 33 | 299 | 9.7 | 20.9 | 0.00 | 0.00 | 0.00 | 10 | 1004.6 |
| 20260510051023 | 33 | 293 | 11.3 | 24.1 | 0.00 | 0.00 | 0.00 | 10 | 1004.6 |
| 20260510050527 | 33 | 285 | 12.9 | 24.1 | 0.00 | 0.00 | 0.00 | 9 | 1004.6 |
| 20260510050022 | 33 | 291 | 9.7 | 20.9 | 0.00 | 0.00 | 0.00 | 9 | 1004.7 |
| 20260510045522 | 33 | 262 | 8.0 | 19.3 | 0.00 | 0.00 | 0.00 | 10 | 1004.5 |
| 20260510045022 | 33 | 259 | 9.7 | 19.3 | 0.00 | 0.00 | 0.00 | 10 | 1004.5 |
| 20260510044523 | 33 | 294 | 8.0 | 19.3 | 0.00 | 0.00 | 0.00 | 9 | 1004.5 |
| 20260510044025 | 33 | 278 | 9.7 | 22.5 | 0.00 | 0.00 | 0.00 | 9 | 1004.4 |
| 20260510043522 | 33 | 275 | 8.0 | 16.1 | 0.00 | 0.00 | 0.00 | 10 | 1004.4 |
| 20260510043023 | 33 | 247 | 8.0 | 14.5 | 0.00 | 0.00 | 0.00 | 10 | 1004.3 |
| 20260510042521 | 33 | 292 | 3.2 | 12.9 | 0.00 | 0.00 | 0.00 | 9 | 1004.2 |
| 20260510042025 | 33 | 292 | 6.4 | 16.1 | 0.00 | 0.00 | 0.00 | 9 | 1004.2 |
| 20260510041522 | 33 | 309 | 9.7 | 17.7 | 0.00 | 0.00 | 0.00 | 9 | 1004.2 |
| 20260510041021 | 33 | 298 | 6.4 | 17.7 | 0.00 | 0.00 | 0.00 | 9 | 1004.1 |
| 20260510040521 | 33 | 295 | 4.8 | 17.7 | 0.00 | 0.00 | 0.00 | 10 | 1004.2 |
| 20260510040020 | 33 | 254 | 8.0 | 17.7 | 0.00 | 0.00 | 0.00 | 10 | 1004.1 |
| 20260510035520 | 33 | 234 | 6.4 | 17.7 | 0.00 | 0.00 | 0.00 | 10 | 1004.0 |
| 20260510035022 | 33 | 259 | 8.0 | 17.7 | 0.00 | 0.00 | 0.00 | 9 | 1004.0 |
| 20260510034520 | 34 | 259 | 6.4 | 16.1 | 0.00 | 0.00 | 0.00 | 9 | 1003.9 |
| 20260510034021 | 34 | 253 | 4.8 | 16.1 | 0.00 | 0.00 | 0.00 | 9 | 1003.8 |
| 20260510033521 | 34 | 256 | 6.4 | 16.1 | 0.00 | 0.00 | 0.00 | 9 | 1003.7 |
| 20260510033019 | 34 | 228 | 6.4 | 16.1 | 0.00 | 0.00 | 0.00 | 9 | 1003.7 |
| 20260510032519 | 34 | 219 | 4.8 | 16.1 | 0.00 | 0.00 | 0.00 | 9 | 1003.7 |
| 20260510032020 | 34 | 240 | 8.0 | 16.1 | 0.00 | 0.00 | 0.00 | 9 | 1003.6 |
| 20260510031535 | 34 | 262 | 8.0 | 16.1 | 0.00 | 0.00 | 0.00 | 9 | 1003.5 |
| 20260510031019 | 35 | 256 | 4.8 | 14.5 | 0.00 | 0.00 | 0.00 | 9 | 1003.4 |
| 20260510030518 | 35 | 258 | 4.8 | 16.1 | 0.00 | 0.00 | 0.00 | 9 | 1003.4 |
| 20260510030022 | 35 | 271 | 4.8 | 16.1 | 0.00 | 0.00 | 0.00 | 9 | 1003.4 |
| 20260510025518 | 35 | 290 | 8.0 | 16.1 | 0.00 | 0.00 | 0.00 | 9 | 1003.3 |
| 20260510025018 | 35 | 279 | 6.4 | 14.5 | 0.00 | 0.00 | 0.00 | 9 | 1003.2 |
| 20260510024532 | 35 | 292 | 6.4 | 11.3 | 0.00 | 0.00 | 0.00 | 9 | 1003.1 |
| 20260510024017 | 35 | 283 | 3.2 | 14.5 | 0.00 | 0.00 | 0.00 | 9 | 1003.0 |
| 20260510023517 | 35 | 292 | 6.4 | 14.5 | 0.00 | 0.00 | 0.00 | 9 | 1003.0 |
| 20260510023017 | 35 | 291 | 4.8 | 11.3 | 0.00 | 0.00 | 0.00 | 9 | 1002.9 |
| 20260510022522 | 35 | 293 | 3.2 | 12.9 | 0.00 | 0.00 | 0.00 | 9 | 1002.9 |
| 20260510022017 | 35 | 279 | 4.8 | 12.9 | 0.00 | 0.00 | 0.00 | 9 | 1002.9 |
| 20260510021521 | 35 | 295 | 1.6 | 11.3 | 0.00 | 0.00 | 0.00 | 9 | 1002.8 |
| 20260510021016 | 36 | 272 | 3.2 | 12.9 | 0.00 | 0.00 | 0.00 | 8 | 1002.8 |
| 20260510020516 | 36 | 305 | 3.2 | 11.3 | 0.00 | 0.00 | 0.00 | 8 | 1002.8 |
| 20260510020016 | 36 | 244 | 1.6 | 8.0 | 0.00 | 0.00 | 0.00 | 9 | 1002.7 |
| 20260510015515 | 36 | 120 | 1.6 | 11.3 | 0.00 | 0.00 | 0.00 | 8 | 1002.8 |
| 20260510015015 | 36 | 224 | 4.8 | 14.5 | 0.00 | 0.00 | 0.00 | 8 | 1002.7 |
| 20260510014517 | 37 | 216 | 4.8 | 12.9 | 0.00 | 0.00 | 0.00 | 8 | 1002.7 |
| 20260510014015 | 37 | 321 | 4.8 | 12.9 | 0.00 | 0.00 | 0.00 | 8 | 1002.7 |
| 20260510013517 | 37 | 208 | 1.6 | 12.9 | 0.00 | 0.00 | 0.00 | 8 | 1002.6 |
| 20260510013015 | 37 | 280 | 3.2 | 12.9 | 0.00 | 0.00 | 0.00 | 8 | 1002.6 |
| 20260510012515 | 37 | 259 | 4.8 | 12.9 | 0.00 | 0.00 | 0.00 | 8 | 1002.6 |
| 20260510012015 | 38 | 254 | 1.6 | 11.3 | 0.00 | 0.00 | 0.00 | 8 | 1002.7 |
| 20260510011515 | 38 | 207 | 1.6 | 11.3 | 0.00 | 0.00 | 0.00 | 8 | 1002.5 |
| 20260510011014 | 38 | 209 | 4.8 | 11.3 | 0.00 | 0.00 | 0.00 | 8 | 1002.6 |
| 20260510010514 | 38 | 292 | 1.6 | 14.5 | 0.00 | 0.00 | 0.00 | 9 | 1002.6 |
| 20260510010013 | 38 | 267 | 1.6 | 14.5 | 0.00 | 0.00 | 0.00 | 8 | 1002.6 |
| 20260510005513 | 38 | 203 | 1.6 | 12.9 | 0.00 | 0.00 | 0.00 | 8 | 1002.6 |
| 20260510005013 | 38 | 194 | 3.2 | 12.9 | 0.00 | 0.00 | 0.00 | 8 | 1002.7 |
| 20260510004512 | 38 | 182 | 4.8 | 17.7 | 0.00 | 0.00 | 0.00 | 8 | 1002.7 |
| 20260510004012 | 38 | 227 | 1.6 | 17.7 | 0.00 | 0.00 | 0.00 | 8 | 1002.6 |
| 20260510003512 | 39 | 216 | 3.2 | 11.3 | 0.00 | 0.00 | 0.00 | 8 | 1002.6 |
| 20260510003026 | 39 | 182 | 1.6 | 11.3 | 0.00 | 0.00 | 0.00 | 7 | 1002.7 |
| 20260510002516 | 39 | 300 | 1.6 | 11.3 | 0.00 | 0.00 | 0.00 | 8 | 1002.7 |
| 20260510002011 | 39 | 190 | 1.6 | 12.9 | 0.00 | 0.00 | 0.00 | 8 | 1002.8 |
| 20260510001515 | 39 | 223 | 4.8 | 17.7 | 0.00 | 0.00 | 0.00 | 8 | 1002.8 |
| 20260510001011 | 39 | 267 | 6.4 | 17.7 | 0.00 | 0.00 | 0.00 | 8 | 1002.7 |
| 20260510000510 | 39 | 240 | 1.6 | 12.9 | 0.00 | 0.00 | 0.00 | 8 | 1002.8 |
| 20260510000009 | 39 | 214 | 3.2 | 11.3 | 0.00 | 0.00 | 0.00 | 8 | 1002.9 |
| 20260509235508 | 40 | 300 | 1.6 | 17.7 | 0.00 | 0.00 | 0.00 | 8 | 1003.0 |
| 20260509235008 | 40 | 153 | 4.8 | 17.7 | 0.00 | 0.00 | 0.00 | 8 | 1002.9 |
| 20260509234521 | 40 | 227 | 3.2 | 11.3 | 0.00 | 0.00 | 0.00 | 8 | 1003.0 |
| 20260509234009 | 39 | 157 | 3.2 | 8.0 | 0.00 | 0.00 | 0.00 | 8 | 1003.0 |
| 20260509233507 | 39 | 261 | 1.6 | 12.9 | 0.00 | 0.00 | 0.00 | 8 | 1003.0 |
| 20260509233009 | 39 | 207 | 3.2 | 16.1 | 0.00 | 0.00 | 0.00 | 8 | 1003.1 |
| 20260509232507 | 39 | 259 | 9.7 | 16.1 | 0.00 | 0.00 | 0.00 | 7 | 1003.1 |
| 20260509232006 | 40 | 295 | 3.2 | 9.7 | 0.00 | 0.00 | 0.00 | 8 | 1003.2 |
| 20260509231506 | 40 | 221 | 3.2 | 11.3 | 0.00 | 0.00 | 0.00 | 8 | 1003.1 |
| 20260509231007 | 40 | 237 | 3.2 | 11.3 | 0.00 | 0.00 | 0.00 | 8 | 1003.2 |
| 20260509230505 | 40 | 278 | 4.8 | 11.3 | 0.00 | 0.00 | 0.00 | 8 | 1003.2 |
| 20260509230011 | 40 | 249 | 3.2 | 14.5 | 0.00 | 0.00 | 0.00 | 8 | 1003.3 |
| 20260509225505 | 40 | 166 | 3.2 | 12.9 | 0.00 | 0.00 | 0.00 | 8 | 1003.3 |
| 20260509225005 | 40 | 215 | 4.8 | 12.9 | 0.00 | 0.00 | 0.00 | 8 | 1003.3 |
| 20260509224503 | 39 | 326 | 4.8 | 11.3 | 0.00 | 0.00 | 0.00 | 8 | 1003.4 |
| 20260509224002 | 40 | 225 | 3.2 | 14.5 | 0.00 | 0.00 | 0.00 | 8 | 1003.6 |
| 20260509223502 | 39 | 209 | 6.4 | 17.7 | 0.00 | 0.00 | 0.00 | 8 | 1003.6 |
| 20260509223001 | 39 | 242 | 6.4 | 19.3 | 0.00 | 0.00 | 0.00 | 8 | 1003.7 |
| 20260509222600 | 39 | 264 | 6.4 | 19.3 | 0.00 | 0.00 | 0.00 | 9 | 1003.7 |
| 20260509222102 | 40 | 236 | 3.2 | 12.9 | 0.00 | 0.00 | 0.00 | 9 | 1003.8 |
| 20260509221559 | 40 | 259 | 3.2 | 17.7 | 0.00 | 0.00 | 0.00 | 9 | 1003.9 |
| 20260509221101 | 39 | 202 | 3.2 | 17.7 | 0.00 | 0.00 | 0.00 | 8 | 1004.0 |
| 20260509220558 | 40 | 280 | 4.8 | 17.7 | 0.00 | 0.00 | 0.00 | 9 | 1004.0 |
| 20260509220057 | 40 | 265 | 6.4 | 16.1 | 0.00 | 0.00 | 0.00 | 9 | 1004.0 |
| 20260509215557 | 40 | 271 | 3.2 | 12.9 | 0.00 | 0.00 | 0.00 | 8 | 1004.1 |
| 20260509215056 | 40 | 215 | 3.2 | 12.9 | 0.00 | 0.00 | 0.00 | 9 | 1004.2 |
| 20260509214556 | 40 | 221 | 4.8 | 11.3 | 0.00 | 0.00 | 0.00 | 9 | 1004.4 |
| 20260509214055 | 40 | 211 | 3.2 | 16.1 | 0.00 | 0.00 | 0.00 | 9 | 1004.4 |
| 20260509213553 | 40 | 250 | 6.4 | 16.1 | 0.00 | 0.00 | 0.00 | 9 | 1004.5 |
| 20260509213058 | 40 | 211 | 1.6 | 9.7 | 0.00 | 0.00 | 0.00 | 9 | 1004.6 |
| 20260509212552 | 39 | 202 | 4.8 | 11.3 | 0.00 | 0.00 | 0.00 | 9 | 1004.7 |
| 20260509212050 | 39 | 235 | 3.2 | 11.3 | 0.00 | 0.00 | 0.00 | 9 | 1004.7 |
| 20260509211554 | 38 | 141 | 1.6 | 16.1 | 0.00 | 0.00 | 0.00 | 9 | 1004.8 |
| 20260509211049 | 38 | 268 | 8.0 | 17.7 | 0.00 | 0.00 | 0.00 | 9 | 1004.9 |
| 20260509210548 | 38 | 241 | 4.8 | 22.5 | 0.00 | 0.00 | 0.00 | 10 | 1005.0 |
| 20260509210051 | 39 | 261 | 9.7 | 22.5 | 0.00 | 0.00 | 0.00 | 10 | 1005.1 |
| 20260509205546 | 39 | 274 | 4.8 | 14.5 | 0.00 | 0.00 | 0.00 | 10 | 1005.1 |
| 20260509205046 | 39 | 247 | 3.2 | 11.3 | 0.00 | 0.00 | 0.00 | 10 | 1005.2 |
| 20260509204544 | 38 | 187 | 4.8 | 14.5 | 0.00 | 0.00 | 0.00 | 10 | 1005.3 |
| 20260509204044 | 38 | 252 | 3.2 | 14.5 | 0.00 | 0.00 | 0.00 | 10 | 1005.4 |
| 20260509203543 | 38 | 323 | 6.4 | 14.5 | 0.00 | 0.00 | 0.00 | 9 | 1005.5 |
| 20260509203043 | 38 | 279 | 3.2 | 11.3 | 0.00 | 0.00 | 0.00 | 10 | 1005.5 |
| 20260509202542 | 38 | 247 | 4.8 | 12.9 | 0.00 | 0.00 | 0.00 | 10 | 1005.6 |
| 20260509202042 | 38 | 189 | 3.2 | 11.3 | 0.00 | 0.00 | 0.00 | 9 | 1005.6 |
| 20260509201542 | 38 | 248 | 6.4 | 12.9 | 0.00 | 0.00 | 0.00 | 10 | 1005.7 |
| 20260509201043 | 38 | 165 | 1.6 | 8.0 | 0.00 | 0.00 | 0.00 | 9 | 1005.8 |
| 20260509200544 | 38 | 221 | 4.8 | 12.9 | 0.00 | 0.00 | 0.00 | 9 | 1005.9 |
| 20260509200041 | 38 | 236 | 3.2 | 12.9 | 0.00 | 0.00 | 0.00 | 10 | 1005.9 |
| 20260509195540 | 38 | 187 | 1.6 | 12.9 | 0.00 | 0.00 | 0.00 | 10 | 1006.0 |
| 20260509195038 | 38 | 252 | 1.6 | 11.3 | 0.00 | 0.00 | 0.00 | 11 | 1006.1 |
| 20260509194539 | 38 | 296 | 3.2 | 11.3 | 0.00 | 0.00 | 0.00 | 11 | 1006.1 |
| 20260509194039 | 38 | 223 | 1.6 | 9.7 | 0.00 | 0.00 | 0.00 | 10 | 1006.2 |
| 20260509193539 | 38 | 230 | 3.2 | 9.7 | 0.00 | 0.00 | 0.00 | 10 | 1006.3 |
| 20260509193039 | 38 | 155 | 3.2 | 11.3 | 0.00 | 0.00 | 0.00 | 11 | 1006.2 |
| 20260509192539 | 37 | 190 | 3.2 | 14.5 | 0.00 | 0.00 | 0.00 | 11 | 1006.4 |
| 20260509192037 | 38 | 207 | 4.8 | 9.7 | 0.00 | 0.00 | 0.00 | 11 | 1006.4 |
| 20260509191536 | 37 | 207 | 1.6 | 9.7 | 0.00 | 0.00 | 0.00 | 11 | 1006.4 |
| 20260509191034 | 37 | 225 | 3.2 | 9.7 | 0.00 | 0.00 | 0.00 | 11 | 1006.6 |
| 20260509190534 | 37 | 78 | 1.6 | 12.9 | 0.00 | 0.00 | 0.00 | 11 | 1006.6 |
| 20260509190038 | 37 | 224 | 1.6 | 12.9 | 0.00 | 0.00 | 0.00 | 11 | 1006.7 |
| 20260509185534 | 37 | 87 | 3.2 | 11.3 | 0.00 | 0.00 | 0.00 | 10 | 1006.8 |
| 20260509185032 | 37 | 168 | 1.6 | 11.3 | 0.00 | 0.00 | 0.00 | 11 | 1006.8 |
| 20260509184534 | 37 | 180 | 1.6 | 11.3 | 0.00 | 0.00 | 0.00 | 12 | 1006.8 |
| 20260509184028 | 36 | 222 | 3.2 | 9.7 | 0.00 | 0.00 | 0.00 | 11 | 1006.9 |
| 20260509183527 | 36 | 187 | 3.2 | 9.7 | 0.00 | 0.00 | 0.00 | 11 | 1007.0 |
| 20260509183028 | 36 | 156 | 1.6 | 11.3 | 0.00 | 0.00 | 0.00 | 12 | 1007.1 |
| 20260509182525 | 36 | 210 | 3.2 | 11.3 | 0.00 | 0.00 | 0.00 | 12 | 1007.2 |
| 20260509182024 | 35 | 212 | 3.2 | 8.0 | 0.00 | 0.00 | 0.00 | 12 | 1007.2 |
| 20260509181539 | 35 | 150 | 1.6 | 8.0 | 0.00 | 0.00 | 0.00 | 11 | 1007.3 |
| 20260509181024 | 35 | 195 | 1.6 | 6.4 | 0.00 | 0.00 | 0.00 | 12 | 1007.4 |
| 20260509180523 | 35 | 277 | 1.6 | 12.9 | 0.00 | 0.00 | 0.00 | 12 | 1007.5 |
| 20260509180019 | 35 | 222 | 1.6 | 12.9 | 0.00 | 0.00 | 0.00 | 13 | 1007.5 |
| 20260509175518 | 35 | 90 | 3.2 | 11.3 | 0.00 | 0.00 | 0.00 | 13 | 1007.6 |
| 20260509175018 | 35 | 165 | 1.6 | 8.0 | 0.00 | 0.00 | 0.00 | 13 | 1007.7 |
| 20260509174516 | 34 | 107 | 3.2 | 8.0 | 0.00 | 0.00 | 0.00 | 13 | 1007.7 |
| 20260509174016 | 34 | 223 | 1.6 | 6.4 | 0.00 | 0.00 | 0.00 | 13 | 1007.7 |
| 20260509173514 | 34 | 155 | 1.6 | 4.8 | 0.00 | 0.00 | 0.00 | 14 | 1007.7 |
| 20260509173018 | 34 | 252 | 1.6 | 4.8 | 0.00 | 0.00 | 0.00 | 13 | 1007.8 |
| 20260509172512 | 34 | 165 | 1.6 | 4.8 | 0.00 | 0.00 | 0.00 | 14 | 1007.8 |
| 20260509172011 | 33 | 304 | 1.6 | 4.8 | 0.00 | 0.00 | 0.00 | 13 | 1007.9 |
| 20260509171510 | 33 | 172 | 0.0 | 4.8 | 0.00 | 0.00 | 0.00 | 14 | 1007.9 |
| 20260509171009 | 33 | 200 | 0.0 | 4.8 | 0.00 | 0.00 | 0.00 | 13 | 1007.9 |
| 20260509170507 | 33 | 68 | 0.0 | 4.8 | 0.00 | 0.00 | 0.00 | 15 | 1008.0 |
| 20260509170005 | 33 | 153 | 0.0 | 4.8 | 0.00 | 0.00 | 0.00 | 14 | 1008.0 |
| 20260509165504 | 33 | 184 | 0.0 | 3.2 | 0.00 | 0.00 | 0.00 | 15 | 1007.9 |
| 20260509165004 | 33 | 242 | 0.0 | 3.2 | 0.00 | 0.00 | 0.00 | 15 | 1008.0 |
| 20260509164501 | 32 | 121 | 0.0 | 4.8 | 0.00 | 0.00 | 0.00 | 14 | 1008.0 |
| 20260509164100 | 32 | 204 | 0.0 | 4.8 | 0.00 | 0.00 | 0.00 | 15 | 1007.9 |
| 20260509163559 | 32 | 173 | 0.0 | 4.8 | 0.00 | 0.00 | 0.00 | 15 | 1008.0 |
| 20260509163101 | 32 | 229 | 0.0 | 3.2 | 0.00 | 0.00 | 0.00 | 16 | 1008.0 |
| 20260509162556 | 32 | 86 | 0.0 | 3.2 | 0.00 | 0.00 | 0.00 | 15 | 1007.9 |
| 20260509162055 | 32 | 88 | 0.0 | 3.2 | 0.00 | 0.00 | 0.00 | 15 | 1007.9 |
| 20260509161553 | 31 | 184 | 0.0 | 3.2 | 0.00 | 0.00 | 0.00 | 15 | 1007.9 |
| 20260509161052 | 31 | 155 | 0.0 | 3.2 | 0.00 | 0.00 | 0.00 | 16 | 1007.9 |
| 20260509160551 | 31 | 183 | 0.0 | 3.2 | 0.00 | 0.00 | 0.00 | 16 | 1008.0 |
| 20260509160050 | 31 | 156 | 1.6 | 3.2 | 0.00 | 0.00 | 0.00 | 15 | 1007.9 |
| 20260509155548 | 31 | 314 | 0.0 | 3.2 | 0.00 | 0.00 | 0.00 | 16 | 1007.8 |
| 20260509155047 | 30 | 303 | 0.0 | 3.2 | 0.00 | 0.00 | 0.00 | 16 | 1007.8 |
| 20260509154553 | 30 | 169 | 0.0 | 3.2 | 0.00 | 0.00 | 0.00 | 15 | 1007.8 |
| 20260509154047 | 30 | 146 | 0.0 | 3.2 | 0.00 | 0.00 | 0.00 | 16 | 1007.8 |
| 20260509153544 | 30 | 119 | 0.0 | 3.2 | 0.00 | 0.00 | 0.00 | 16 | 1007.9 |
| 20260509153043 | 29 | 135 | 0.0 | 3.2 | 0.00 | 0.00 | 0.00 | 16 | 1007.8 |
| 20260509152545 | 28 | 152 | 0.0 | 3.2 | 0.00 | 0.00 | 0.00 | 17 | 1007.8 |
| 20260509152041 | 28 | 26 | 0.0 | 4.8 | 0.00 | 0.00 | 0.00 | 19 | 1007.9 |
| 20260509151542 | 28 | 52 | 0.0 | 6.4 | 0.00 | 0.00 | 0.00 | 17 | 1007.8 |
| 20260509151039 | 28 | 46 | 1.6 | 8.0 | 0.00 | 0.00 | 0.00 | 18 | 1007.8 |
| 20260509150537 | 27 | 29 | 3.2 | 8.0 | 0.00 | 0.00 | 0.00 | 18 | 1007.9 |
| 20260509150036 | 27 | 54 | 3.2 | 8.0 | 0.00 | 0.00 | 0.00 | 17 | 1007.9 |
| 20260509145535 | 27 | 40 | 3.2 | 8.0 | 0.00 | 0.00 | 0.00 | 18 | 1007.8 |